CST,Max TemperatureF,Mean TemperatureF,Min TemperatureF,Max Dew PointF,MeanDew PointF,Min DewpointF,Max Humidity, Mean Humidity, Min Humidity, Max Sea Level PressureIn, Mean Sea Level PressureIn, Min Sea Level PressureIn, Max VisibilityMiles, Mean VisibilityMiles, Min VisibilityMiles, Max Wind SpeedMPH, Mean Wind SpeedMPH, Max Gust SpeedMPH,PrecipitationIn, CloudCover, Events, WindDirDegrees
2011-12-1,62,49,35,42,35,31,92,62,32,30.35,30.29,30.21,10,10,9,9,4,21,0.00,0,,34
2011-12-2,67,54,40,45,41,35,86,63,40,30.43,30.38,30.34,10,10,10,9,4,23,0.00,0,,47
2011-12-3,68,57,46,54,46,35,72,62,52,30.41,30.34,30.29,10,10,10,16,8,20,0.00,2,,88
2011-12-4,71,65,59,59,56,51,90,78,66,30.28,30.21,30.12,10,10,10,18,10,30,0.00,2,,101
2011-12-5,73,66,58,68,64,56,100,90,79,30.11,30.05,30.00,10,7,1,18,9,24,0.34,6,Rain,154
2011-12-6,76,66,55,70,65,54,100,87,74,30.08,30.03,29.98,10,7,0,16,8,20,T,6,Fog,188
2011-12-7,55,47,39,54,38,30,100,75,50,30.30,30.15,30.00,10,9,2,23,13,29,0.04,6,Rain,320
2011-12-8,55,45,35,37,33,28,85,66,46,30.36,30.29,30.22,10,10,6,17,5,24,0.00,1,,349
2011-12-9,59,48,36,39,36,33,92,66,40,30.31,30.26,30.22,10,10,7,12,6,16,0.00,0,,1
2011-12-10,59,51,43,34,31,28,70,52,33,30.39,30.34,30.30,10,10,10,17,10,23,0.00,0,,5
2011-12-11,52,45,38,43,36,30,71,65,58,30.38,30.32,30.27,10,10,10,16,8,21,0.00,4,,26
2011-12-12,61,55,48,52,48,44,93,82,71,30.38,30.33,30.30,10,9,5,10,6,16,0.01,7,Rain,29
2011-12-13,70,60,50,57,52,48,100,80,59,30.43,30.36,30.32,10,6,0,8,4,14,0.00,5,Fog,36
2011-12-14,70,61,52,61,56,49,100,86,72,30.32,30.27,30.22,10,10,8,13,7,17,0.00,2,,100
2011-12-15,73,64,54,64,61,53,100,87,73,30.24,30.18,30.15,10,6,0,15,5,18,0.00,4,Fog,97
2011-12-16,75,67,58,63,61,57,100,82,64,30.23,30.18,30.14,10,4,0,15,4,20,0.02,4,Fog,91
2011-12-17,63,54,45,59,46,33,93,70,46,30.38,30.29,30.20,10,10,9,18,10,22,T,4,Rain,353
2011-12-18,62,52,41,34,31,29,67,47,27,30.41,30.34,30.28,10,10,10,13,6,17,0.00,0,,17
2011-12-19,68,56,44,64,53,34,93,77,60,30.26,30.17,30.09,10,9,7,14,7,20,0.03,5,Rain,93
2011-12-20,71,68,64,68,65,62,100,95,90,30.12,30.04,29.98,10,5,0,21,9,26,4.15,8,Fog-Rain,184
2011-12-21,75,70,65,70,67,64,100,94,87,30.02,29.97,29.94,10,6,0,15,6,22,0.63,8,Fog-Rain,168
2011-12-22,74,66,57,70,67,56,100,94,87,30.11,29.98,29.90,10,6,0,26,11,33,0.53,7,Fog-Rain,167
2011-12-23,62,56,50,54,49,44,100,85,69,30.30,30.20,30.10,10,10,10,17,11,28,0.01,7,,5
2011-12-24,67,57,47,47,44,42,86,66,45,30.39,30.30,30.26,10,10,7,15,8,21,0.00,3,,23
2011-12-25,66,61,56,61,55,46,93,80,67,30.31,30.26,30.21,10,8,1,10,5,16,0.51,8,Rain,40
2011-12-26,67,62,56,64,59,54,93,83,72,30.24,30.08,29.90,10,6,1,25,10,33,1.48,8,Rain-Thunderstorm,94
2011-12-27,64,55,46,61,45,38,83,68,53,30.17,30.03,29.92,10,10,4,25,11,35,T,4,Rain,291
2011-12-28,59,50,40,41,38,33,89,65,40,30.24,30.18,30.14,10,10,10,10,4,17,0.00,0,,282
2011-12-29,66,55,44,54,48,41,100,79,57,30.14,30.08,30.02,10,10,8,10,3,28,0.00,2,,85
2011-12-30,74,61,48,60,53,46,100,79,57,30.11,30.04,30.01,10,6,1,20,6,31,0.03,2,,217
2011-12-31,69,63,57,61,58,55,100,84,68,30.20,30.14,30.06,10,2,0,10,5,13,0.00,4,Fog,234